Ketchikan, AK

9:52 AM AKST on November 13, 2018 (GMT -0900)
Ketchikan International

Weather History for PAKT - October, 2017

Change the Weather History Date:

Sunday, October 15, 2017

  Actual Average Record
Temperature  
Mean Temperature 50 °F -  
Max Temperature 55 °F 51 °F 66 °F (1963)
Min Temperature 46 °F 39 °F 24 °F (1992)
Degree Days  
Heating Degree Days 14    
Moisture  
Dew Point 48 °F    
Average Humidity 89    
Maximum Humidity 100    
Minimum Humidity 74    
Precipitation  
Precipitation 0.44 in - - ()
Sea Level Pressure  
Sea Level Pressure 29.76 in    
Wind  
Wind Speed 10 mph (SE)    
Max Wind Speed 15 mph    
Max Gust Speed 21 mph    
Visibility 9 miles    
Events Rain    
Averages and records for this station are not official NWS values.
T = Trace of Precipitation, MM = Missing Value Source: NWS Daily Summary

Daily Weather History Graph

Daily Weather History Graph

Search for Another Location

Airport or City:

Astronomy

Oct. 15, 2017 Rise Set
Actual Time 7:17 AM AKDT 5:46 PM AKDT
Civil Twilight 6:40 AM AKDT 6:23 PM AKDT
Nautical Twilight 5:58 AM AKDT 7:05 PM AKDT
Astronomical Twilight 5:15 AM AKDT 7:47 PM AKDT
Moon 2:03 AM AKDT (10/15) 4:45 PM AKDT (10/15)
Length of Visible Light 11h 42m
Length of Day
10h 28m
Waning Crescent, 16% of the Moon is Illuminated
Oct 15
Waning Crescent
Oct 19
New
Oct 27
First Quarter
Nov 3
Full
Nov 10
Last Quarter

Hourly Weather History & Observations

Time (AKDT) Temp. Dew Point Humidity Pressure Visibility Wind Dir Wind Speed Gust Speed Precip Events Conditions
12:53 AM 53.1 °F 52.0 °F 96% 29.71 in 5.0 mi SE 11.5 mph - 0.19 in Rain Rain
1:53 AM 53.1 °F 52.0 °F 96% 29.71 in 8.0 mi SE 11.5 mph - 0.09 in Rain Light Rain
2:14 AM 55.0 °F 50.0 °F 83% 29.70 in 10.0 mi SSE 8.1 mph - 0.00 in   Overcast
2:53 AM 52.0 °F 51.1 °F 97% 29.71 in 10.0 mi SE 10.4 mph - 0.00 in   Overcast
3:49 AM 51.8 °F 50.0 °F 94% 29.71 in 7.0 mi SE 12.7 mph - 0.00 in Rain Light Rain
3:53 AM 52.0 °F 51.1 °F 97% 29.71 in 6.0 mi SE 11.5 mph - 0.00 in Rain Light Rain
4:16 AM 52.0 °F 51.1 °F 97% 29.71 in 2.5 mi SE 8.1 mph - 0.02 in Rain Light Rain
4:25 AM 52.0 °F 51.1 °F 97% 29.71 in 5.0 mi ESE 8.1 mph - 0.02 in Rain Light Rain
4:32 AM 52.0 °F 51.1 °F 97% 29.70 in 8.0 mi East 9.2 mph - 0.02 in Rain Light Rain
4:53 AM 52.0 °F 51.1 °F 97% 29.71 in 10.0 mi ESE 11.5 mph - 0.02 in   Overcast
5:36 AM 51.1 °F 51.1 °F 100% 29.71 in 10.0 mi East 6.9 mph - 0.04 in Rain Light Rain
5:53 AM 51.1 °F 50.0 °F 96% 29.72 in 10.0 mi ESE 9.2 mph - 0.04 in   Mostly Cloudy
6:00 AM 51.8 °F 50.0 °F 94% 29.72 in 9.0 mi SE 8.1 mph - N/A Rain Light Rain
6:53 AM 51.8 °F 48.2 °F 88% 29.73 in 10.0 mi SSE 5.8 mph - N/A   Mostly Cloudy
7:53 AM 50.0 °F 46.0 °F 86% 29.74 in 8.0 mi SE 10.4 mph - 0.02 in Rain Rain
8:53 AM 50.0 °F 46.9 °F 89% 29.75 in 10.0 mi SE 10.4 mph - 0.00 in   Mostly Cloudy
9:53 AM 50.0 °F 44.6 °F 82% 29.77 in 10.0 mi SE 5.8 mph - N/A Rain Light Rain
10:53 AM 52.0 °F 46.0 °F 80% 29.78 in 10.0 mi ESE 12.7 mph - 0.00 in   Mostly Cloudy
11:53 AM 51.1 °F 44.1 °F 77% 29.78 in 10.0 mi SE 9.2 mph - 0.00 in Rain Light Rain
12:53 PM 51.8 °F 44.6 °F 76% 29.78 in 10.0 mi SE 10.4 mph 16.1 mph N/A   Overcast
1:53 PM 52.0 °F 44.1 °F 74% 29.78 in 10.0 mi East 12.7 mph 20.7 mph 0.01 in Rain Light Rain
2:53 PM 52.0 °F 46.0 °F 80% 29.78 in 10.0 mi ESE 15.0 mph - 0.02 in   Mostly Cloudy
3:53 PM 51.1 °F 46.0 °F 83% 29.78 in 10.0 mi SSE 5.8 mph - 0.01 in Rain Light Rain
4:53 PM 50.0 °F 46.9 °F 89% 29.79 in 10.0 mi SSE 3.5 mph - 0.03 in Rain Light Rain
5:53 PM 50.0 °F 46.9 °F 89% 29.81 in 10.0 mi ESE 6.9 mph - 0.00 in   Overcast
6:53 PM 48.0 °F 46.0 °F 93% 29.82 in 10.0 mi SE 5.8 mph - 0.01 in   Mostly Cloudy
7:53 PM 48.0 °F 45.0 °F 89% 29.83 in 10.0 mi South 5.8 mph - N/A   Scattered Clouds
8:53 PM 48.0 °F 45.0 °F 89% 29.84 in 10.0 mi SE 5.8 mph - 0.00 in   Partly Cloudy
9:53 PM 46.9 °F 44.1 °F 90% 29.85 in 10.0 mi SE 5.8 mph - N/A   Clear
10:53 PM 46.9 °F 43.0 °F 86% 29.84 in 10.0 mi SSE 6.9 mph - N/A   Clear
11:53 PM 46.9 °F 45.0 °F 93% 29.83 in 10.0 mi South 5.8 mph - N/A   Overcast